Список аэропортов
Фактическая погода:

21 января, 13:00
Температура: +12°C (+10.1*)
Ветер: южный 5 м/с
Давление: *764 мм
облачно
кучево-дождевые 1200 м
слаб. ливневый дождь
Время (МСК)Темп. СВетерВлажностьДавлениеОблачностьОсадки
09:00+12ЮВ, 10 м/с47%1016 гПаоблачно
10:00+12ЮВ, 10 м/с44%1016 гПаоблачно
11:00+12ЮВ, 10 м/с42%1016 гПаоблачносл. дождь
12:00+12ЮВ, 9 м/с41%1016 гПаоблачносл. дождь
13:00+12ЮВ, 10 м/с44%1017 гПаоблачнодождь
14:00+11ЮВ, 7 м/с49%1017 гПаоблачнодождь
15:00+12ЮВ, 7 м/с50%1018 гПаоблачнодождь
16:00+11ЮВ, 6 м/с50%1018 гПаоблачно
17:00+12ЮВ, 6 м/с48%1018 гПаоблачно
18:00+11ЮВ, 4 м/с51%1018 гПаоблачно
19:00+10ЮВ, 3 м/с57%1018 гПас прояснениями
20:00+10В, 3 м/с60%1018 гПаоблачно
21:00+9В, 3 м/с60%1017 гПаоблачно
22:00+9СВ, 3 м/с63%1016 гПас прояснениями
23:00+9СВ, 3 м/с64%1015 гПаоблачно
22 января
00:00+9СВ, 2 м/с62%1014 гПаоблачно
01:00+10В, 3 м/с60%1013 гПаоблачно
02:00+11В, 4 м/с52%1012 гПаоблачно
03:00+12В, 4 м/с47%1011 гПаоблачно
04:00+12В, 4 м/с49%1010 гПаоблачно
05:00+13ЮВ, 5 м/с46%1009 гПаоблачно
06:00+14ЮВ, 6 м/с37%1008 гПаоблачно
07:00+13ЮВ, 6 м/с49%1008 гПаоблачно
08:00+14ЮВ, 8 м/с41%1008 гПаоблачно
09:00+14ЮВ, 9 м/с36%1008 гПаоблачно
10:00+15ЮВ, 8 м/с36%1007 гПаоблачно
11:00+15ЮВ, 8 м/с36%1006 гПаоблачно
12:00+15ЮВ, 9 м/с37%1006 гПаоблачно
13:00+15ЮВ, 8 м/с37%1006 гПас прояснениями
14:00+15ЮВ, 9 м/с39%1005 гПас прояснениями
15:00+15ЮВ, 9 м/с38%1005 гПас прояснениями
16:00+15ЮВ, 8 м/с40%1005 гПас прояснениями
17:00+14ЮВ, 8 м/с42%1005 гПас прояснениями
18:00+14ЮВ, 9 м/с41%1005 гПас прояснениями
19:00+15ЮВ, 8 м/с38%1005 гПаоблачно
20:00+15ЮВ, 8 м/с37%1005 гПаоблачно
21:00+15ЮВ, 9 м/с33%1005 гПаоблачно
22:00+15ЮВ, 9 м/с34%1005 гПаоблачно
23:00+14ЮВ, 10 м/с34%1005 гПас прояснениями
23 января
00:00+14ЮВ, 10 м/с36%1004 гПаоблачно
01:00+14ЮВ, 9 м/с37%1004 гПас прояснениями
02:00+14ЮВ, 9 м/с38%1004 гПас прояснениями
03:00+14ЮВ, 9 м/с38%1004 гПас прояснениями
04:00+14ЮВ, 9 м/с38%1003 гПаоблачносл. дождь
05:00+14ЮВ, 8 м/с37%1003 гПас прояснениями
06:00+14ЮВ, 7 м/с36%1002 гПас прояснениями
07:00+14ЮВ, 6 м/с39%1002 гПаоблачно
08:00+14ЮВ, 4 м/с45%1002 гПаоблачно
09:00+13Ю, 4 м/с54%1003 гПаоблачно